This is the latest recevied weather packets stored in our database for station/object KK4KTV-13. If no packets are shown the sender has not sent any weather packets the latest 10 day(s).
| Time | Temp. | Humidity | Pressure | Rain* | Wind** | Luminosity | Snow |
|---|---|---|---|---|---|---|---|
| 1776973907 | 27.78° C | 35% | 1013.8 hPa | 0 mm | - | 597 W/m² | - |
| 1776973604 | 28.89° C | 35% | 1014 hPa | 0 mm | - | 637 W/m² | - |
| 1776973302 | 27.78° C | 37% | 1014.1 hPa | 0 mm | - | 656 W/m² | - |
| 1776972999 | 27.78° C | 37% | 1014.3 hPa | 0 mm | - | 658 W/m² | - |
| 1776972695 | 26.67° C | 37% | 1014.5 hPa | 0 mm | - | 681 W/m² | - |
| 1776972394 | 26.11° C | 36% | 1014.5 hPa | 0 mm | - | 166 W/m² | - |
| 1776972088 | 27.78° C | 36% | 1014.4 hPa | 0 mm | - | 302 W/m² | - |
| 1776971784 | 27.78° C | 34% | 1014.7 hPa | 0 mm | - | 707 W/m² | - |
| 1776971481 | 26.67° C | 37% | 1014.6 hPa | 0 mm | - | 712 W/m² | - |
| 1776971180 | 27.22° C | 38% | 1014.9 hPa | 0 mm | - | 704 W/m² | - |
| 1776970876 | 27.78° C | 36% | 1014.8 hPa | 0 mm | - | 710 W/m² | - |
| 1776970574 | 26.67° C | 37% | 1015 hPa | 0 mm | - | 716 W/m² | - |
| 1776970270 | 26.67° C | 37% | 1015 hPa | 0 mm | - | 330 W/m² | - |
| 1776969966 | 27.22° C | 40% | 1015.3 hPa | 0 mm | - | 242 W/m² | - |
| 1776969664 | 27.78° C | 37% | 1015.3 hPa | 0 mm | - | 719 W/m² | - |
| 1776969359 | 27.78° C | 39% | 1015.5 hPa | 0 mm | - | 732 W/m² | - |
| 1776969057 | 26.67° C | 37% | 1015.5 hPa | 0 mm | - | 756 W/m² | - |
| 1776968756 | 26.11° C | 39% | 1015.7 hPa | 0 mm | - | 796 W/m² | - |
| 1776968452 | 26.11° C | 38% | 1015.5 hPa | 0 mm | - | 207 W/m² | - |
| 1776968148 | 26.67° C | 37% | 1015.7 hPa | 0 mm | - | 201 W/m² | - |
| 1776967844 | 27.22° C | 37% | 1015.7 hPa | 0 mm | - | 743 W/m² | - |
| 1776967541 | 27.22° C | 37% | 1015.8 hPa | 0 mm | - | 754 W/m² | - |
| 1776967240 | 26.67° C | 39% | 1015.8 hPa | 0 mm | - | 742 W/m² | - |
| 1776966935 | 26.67° C | 40% | 1016 hPa | 0 mm | - | 744 W/m² | - |
| 1776966632 | 26.67° C | 38% | 1015.9 hPa | 0 mm | - | 762 W/m² | - |
* Rain latest hour (hover to see other rain measurements)
** Current wind speed in m/s (hover to see current wind gust speed)